Precipitable_Water
0.58 0.58 0.54 0.54 0.52 0.52 0.50 0.48 0.46 0.46 0.46 0.46 0.46 0.46 0.46 0.46 0.46 0.44 0.44 0.44 0.44 0.44 0.44 0.46 0.46 0.46 0.44 0.42 0.42 0.40 0.40 0.38 0.38 0.38 0.36 0.34 0.34 0.34 0.34 0.32 0.32 0.32 0.30 0.30 0.28 0.28 0.28 0.26 0.26 0.24 0.24 0.24 0.24 0.22 0.22 0.22 0.24 0.24 0.22 0.24 0.24 0.24 0.24 0.24 0.26 0.26 0.26 0.26 0.26 0.26 0.26 0.26 0.26 0.26 0.28 0.28 0.28 0.28 0.30 0.30 0.30 0.30 0.30 0.30 0.32 0.32
0.54 0.54 0.50 0.50 0.48 0.48 0.48 0.46 0.46 0.46 0.44 0.44 0.44 0.44 0.44 0.42 0.42 0.42 0.42 0.42 0.44 0.44 0.44 0.44 0.44 0.44 0.42 0.40 0.40 0.40 0.40 0.38 0.36 0.36 0.34 0.34 0.32 0.32 0.32 0.32 0.30 0.30 0.30 0.28 0.28 0.26 0.26 0.24 0.24 0.24 0.22 0.22 0.22 0.22 0.22 0.22 0.22 0.22 0.22 0.22 0.22 0.24 0.24 0.24 0.24 0.24 0.26 0.26 0.26 0.26 0.26 0.26 0.26 0.26 0.26 0.28 0.28 0.28 0.28 0.30 0.30 0.30 0.30 0.32 0.32 0.34
0.48 0.48 0.46 0.46 0.46 0.46 0.46 0.44 0.44 0.44 0.44 0.44 0.42 0.42 0.42 0.40 0.42 0.42 0.42 0.42 0.44 0.44 0.42 0.42 0.42 0.42 0.40 0.40 0.38 0.38 0.38 0.36 0.34 0.34 0.34 0.32 0.32 0.32 0.32 0.30 0.30 0.28 0.28 0.28 0.26 0.26 0.26 0.24 0.22 0.22 0.20 0.20 0.20 0.20 0.20 0.22 0.22 0.22 0.22 0.22 0.22 0.22 0.22 0.24 0.24 0.24 0.24 0.24 0.24 0.24 0.26 0.26 0.26 0.26 0.26 0.28 0.28 0.28 0.28 0.28 0.30 0.30 0.30 0.30 0.32 0.32
0.46 0.46 0.46 0.46 0.46 0.46 0.46 0.44 0.44 0.44 0.44 0.44 0.42 0.40 0.40 0.40 0.40 0.40 0.42 0.42 0.44 0.42 0.40 0.40 0.40 0.40 0.38 0.38 0.38 0.36 0.36 0.34 0.34 0.32 0.32 0.32 0.32 0.30 0.30 0.30 0.28 0.28 0.28 0.26 0.24 0.24 0.24 0.22 0.22 0.20 0.20 0.20 0.20 0.20 0.20 0.22 0.22 0.22 0.22 0.22 0.22 0.22 0.22 0.24 0.24 0.24 0.24 0.24 0.24 0.24 0.24 0.26 0.26 0.26 0.26 0.26 0.28 0.28 0.28 0.28 0.28 0.30 0.30 0.30 0.32 0.32
0.46 0.46 0.46 0.44 0.44 0.44 0.46 0.46 0.44 0.44 0.44 0.42 0.42 0.40 0.40 0.40 0.40 0.40 0.42 0.42 0.42 0.40 0.38 0.38 0.38 0.36 0.36 0.36 0.36 0.36 0.34 0.32 0.32 0.32 0.32 0.30 0.30 0.30 0.30 0.28 0.28 0.26 0.26 0.24 0.24 0.22 0.22 0.20 0.20 0.20 0.20 0.20 0.20 0.20 0.20 0.20 0.22 0.22 0.22 0.22 0.22 0.22 0.22 0.24 0.24 0.24 0.24 0.24 0.24 0.24 0.24 0.26 0.26 0.26 0.26 0.26 0.26 0.26 0.28 0.28 0.28 0.28 0.30 0.30 0.30 0.32
0.46 0.46 0.46 0.44 0.44 0.44 0.44 0.44 0.44 0.44 0.42 0.42 0.42 0.42 0.42 0.42 0.42 0.42 0.40 0.40 0.40 0.38 0.36 0.36 0.36 0.34 0.34 0.34 0.34 0.34 0.32 0.32 0.30 0.30 0.30 0.30 0.28 0.28 0.28 0.26 0.26 0.24 0.24 0.22 0.22 0.22 0.22 0.20 0.20 0.20 0.20 0.20 0.20 0.20 0.20 0.20 0.22 0.22 0.22 0.22 0.22 0.22 0.22 0.22 0.24 0.24 0.24 0.24 0.24 0.24 0.24 0.24 0.26 0.26 0.26 0.26 0.26 0.26 0.26 0.28 0.28 0.28 0.28 0.28 0.30 0.30
0.46 0.46 0.46 0.46 0.44 0.44 0.44 0.44 0.44 0.44 0.42 0.42 0.42 0.42 0.42 0.42 0.42 0.40 0.40 0.38 0.36 0.36 0.34 0.34 0.34 0.34 0.32 0.32 0.32 0.32 0.30 0.30 0.30 0.30 0.30 0.28 0.28 0.28 0.26 0.26 0.24 0.24 0.22 0.20 0.20 0.20 0.20 0.20 0.18 0.18 0.18 0.18 0.20 0.20 0.20 0.20 0.20 0.22 0.22 0.22 0.22 0.22 0.22 0.24 0.24 0.24 0.24 0.24 0.24 0.24 0.24 0.24 0.24 0.24 0.26 0.26 0.26 0.26 0.26 0.26 0.28 0.28 0.28 0.28 0.28 0.30
0.46 0.46 0.46 0.44 0.44 0.44 0.44 0.44 0.44 0.44 0.42 0.42 0.42 0.42 0.42 0.42 0.40 0.40 0.38 0.38 0.36 0.34 0.32 0.32 0.32 0.32 0.30 0.30 0.30 0.30 0.30 0.28 0.28 0.28 0.28 0.26 0.26 0.26 0.24 0.22 0.22 0.22 0.22 0.20 0.18 0.18 0.20 0.18 0.18 0.18 0.18 0.18 0.18 0.20 0.20 0.20 0.20 0.20 0.22 0.22 0.22 0.22 0.22 0.24 0.24 0.24 0.24 0.24 0.24 0.24 0.24 0.24 0.24 0.24 0.24 0.24 0.26 0.26 0.26 0.26 0.26 0.26 0.26 0.28 0.28 0.28
0.46 0.44 0.46 0.46 0.46 0.44 0.44 0.44 0.46 0.46 0.46 0.44 0.44 0.42 0.40 0.40 0.38 0.36 0.36 0.36 0.36 0.34 0.32 0.30 0.30 0.30 0.28 0.30 0.30 0.28 0.28 0.28 0.28 0.28 0.28 0.26 0.24 0.24 0.24 0.20 0.20 0.20 0.20 0.18 0.18 0.18 0.18 0.18 0.18 0.18 0.18 0.18 0.18 0.18 0.20 0.20 0.20 0.20 0.22 0.22 0.22 0.22 0.22 0.22 0.24 0.24 0.24 0.24 0.24 0.24 0.24 0.24 0.24 0.24 0.24 0.24 0.24 0.24 0.26 0.26 0.26 0.26 0.26 0.28 0.28 0.28
0.48 0.46 0.46 0.48 0.46 0.46 0.44 0.46 0.46 0.46 0.48 0.46 0.46 0.44 0.42 0.38 0.34 0.32 0.32 0.32 0.32 0.32 0.30 0.30 0.30 0.28 0.28 0.28 0.28 0.28 0.28 0.28 0.26 0.26 0.26 0.24 0.24 0.22 0.22 0.20 0.18 0.18 0.18 0.18 0.16 0.18 0.18 0.18 0.18 0.18 0.18 0.18 0.18 0.18 0.18 0.20 0.20 0.20 0.22 0.22 0.22 0.22 0.22 0.22 0.22 0.22 0.22 0.24 0.24 0.24 0.24 0.24 0.24 0.24 0.24 0.24 0.24 0.24 0.24 0.26 0.26 0.26 0.26 0.26 0.28 0.28
0.48 0.48 0.48 0.48 0.48 0.48 0.46 0.46 0.48 0.48 0.48 0.48 0.44 0.42 0.40 0.38 0.34 0.32 0.30 0.30 0.30 0.30 0.28 0.30 0.28 0.28 0.28 0.28 0.28 0.28 0.28 0.26 0.26 0.24 0.24 0.22 0.20 0.20 0.20 0.18 0.16 0.16 0.16 0.16 0.16 0.16 0.16 0.16 0.16 0.16 0.16 0.18 0.18 0.18 0.18 0.20 0.20 0.20 0.22 0.22 0.22 0.22 0.22 0.22 0.22 0.22 0.22 0.22 0.24 0.24 0.24 0.24 0.24 0.24 0.24 0.24 0.24 0.24 0.24 0.24 0.26 0.26 0.26 0.26 0.26 0.28
0.48 0.48 0.48 0.48 0.48 0.48 0.48 0.48 0.48 0.46 0.46 0.44 0.40 0.38 0.36 0.36 0.34 0.32 0.30 0.28 0.28 0.28 0.28 0.28 0.28 0.28 0.28 0.26 0.26 0.26 0.26 0.24 0.24 0.22 0.22 0.20 0.20 0.18 0.18 0.16 0.16 0.16 0.16 0.16 0.16 0.16 0.16 0.16 0.16 0.16 0.16 0.16 0.18 0.18 0.18 0.20 0.20 0.20 0.22 0.22 0.22 0.22 0.22 0.22 0.22 0.22 0.22 0.22 0.24 0.24 0.24 0.24 0.24 0.24 0.24 0.24 0.24 0.24 0.24 0.24 0.24 0.26 0.26 0.26 0.26 0.26
0.50 0.48 0.48 0.48 0.48 0.48 0.48 0.46 0.46 0.44 0.44 0.40 0.36 0.32 0.32 0.32 0.32 0.32 0.30 0.28 0.28 0.28 0.28 0.28 0.28 0.28 0.28 0.26 0.26 0.26 0.24 0.22 0.22 0.20 0.20 0.18 0.18 0.18 0.16 0.16 0.16 0.16 0.16 0.16 0.16 0.16 0.16 0.16 0.16 0.16 0.16 0.16 0.18 0.18 0.18 0.20 0.20 0.20 0.22 0.22 0.22 0.22 0.22 0.22 0.22 0.22 0.22 0.22 0.24 0.24 0.24 0.24 0.24 0.24 0.24 0.24 0.24 0.24 0.24 0.26 0.26 0.26 0.26 0.26 0.26 0.26
0.48 0.48 0.48 0.48 0.48 0.48 0.46 0.44 0.42 0.42 0.40 0.36 0.34 0.32 0.32 0.32 0.30 0.30 0.30 0.28 0.28 0.28 0.28 0.26 0.26 0.26 0.26 0.26 0.26 0.24 0.24 0.22 0.20 0.20 0.18 0.18 0.18 0.16 0.16 0.16 0.16 0.16 0.16 0.16 0.16 0.16 0.16 0.16 0.16 0.16 0.16 0.16 0.18 0.18 0.18 0.20 0.20 0.22 0.22 0.22 0.22 0.22 0.22 0.22 0.22 0.22 0.22 0.22 0.24 0.24 0.24 0.24 0.24 0.24 0.24 0.24 0.24 0.24 0.24 0.26 0.26 0.26 0.26 0.26 0.26 0.26
0.48 0.48 0.48 0.46 0.46 0.46 0.44 0.42 0.40 0.38 0.36 0.34 0.32 0.32 0.32 0.30 0.30 0.28 0.28 0.28 0.28 0.28 0.26 0.26 0.26 0.26 0.24 0.24 0.24 0.24 0.22 0.20 0.18 0.18 0.18 0.16 0.16 0.16 0.16 0.16 0.16 0.16 0.16 0.16 0.16 0.16 0.16 0.16 0.16 0.16 0.16 0.16 0.18 0.18 0.20 0.20 0.20 0.22 0.22 0.22 0.22 0.22 0.22 0.22 0.22 0.22 0.22 0.24 0.24 0.24 0.24 0.24 0.24 0.24 0.24 0.24 0.24 0.24 0.24 0.26 0.26 0.26 0.26 0.26 0.26 0.26
0.48 0.48 0.46 0.46 0.46 0.44 0.40 0.40 0.38 0.36 0.34 0.32 0.32 0.32 0.30 0.30 0.30 0.28 0.28 0.28 0.28 0.26 0.26 0.24 0.24 0.24 0.22 0.22 0.22 0.22 0.20 0.18 0.18 0.16 0.16 0.16 0.16 0.16 0.16 0.16 0.16 0.16 0.16 0.16 0.16 0.16 0.16 0.16 0.16 0.16 0.16 0.16 0.18 0.18 0.18 0.20 0.20 0.22 0.22 0.22 0.22 0.22 0.22 0.22 0.22 0.22 0.22 0.24 0.24 0.24 0.24 0.24 0.24 0.24 0.24 0.24 0.24 0.24 0.26 0.26 0.26 0.26 0.26 0.26 0.26 0.26
0.46 0.44 0.44 0.42 0.42 0.40 0.36 0.36 0.34 0.34 0.32 0.32 0.30 0.30 0.30 0.28 0.28 0.28 0.28 0.28 0.26 0.26 0.24 0.22 0.22 0.20 0.18 0.18 0.20 0.22 0.22 0.18 0.16 0.16 0.14 0.14 0.16 0.16 0.16 0.16 0.14 0.14 0.16 0.16 0.16 0.16 0.16 0.16 0.16 0.16 0.16 0.18 0.18 0.18 0.18 0.20 0.22 0.22 0.22 0.22 0.22 0.22 0.22 0.22 0.22 0.22 0.24 0.24 0.24 0.24 0.24 0.24 0.24 0.24 0.24 0.24 0.24 0.26 0.26 0.26 0.26 0.26 0.26 0.26 0.26 0.26
0.44 0.42 0.40 0.38 0.38 0.36 0.34 0.32 0.32 0.32 0.32 0.30 0.30 0.30 0.30 0.30 0.30 0.28 0.28 0.26 0.26 0.24 0.22 0.20 0.20 0.18 0.16 0.16 0.18 0.20 0.20 0.18 0.16 0.16 0.14 0.14 0.14 0.16 0.16 0.16 0.14 0.14 0.14 0.16 0.16 0.16 0.16 0.16 0.16 0.18 0.18 0.18 0.18 0.18 0.18 0.20 0.22 0.22 0.22 0.22 0.22 0.22 0.22 0.22 0.22 0.22 0.24 0.24 0.24 0.24 0.24 0.24 0.24 0.24 0.24 0.24 0.26 0.26 0.26 0.26 0.26 0.26 0.26 0.26 0.26 0.26
0.40 0.38 0.38 0.36 0.36 0.34 0.32 0.30 0.30 0.30 0.30 0.30 0.30 0.30 0.30 0.30 0.30 0.28 0.28 0.26 0.26 0.24 0.22 0.20 0.18 0.18 0.16 0.16 0.18 0.18 0.20 0.18 0.16 0.16 0.14 0.14 0.14 0.16 0.16 0.16 0.16 0.14 0.14 0.14 0.16 0.16 0.16 0.18 0.18 0.18 0.18 0.18 0.18 0.18 0.20 0.20 0.22 0.22 0.22 0.22 0.22 0.22 0.22 0.22 0.22 0.24 0.24 0.24 0.24 0.24 0.24 0.24 0.24 0.24 0.24 0.24 0.26 0.26 0.26 0.26 0.26 0.26 0.26 0.26 0.26 0.26
0.36 0.34 0.34 0.34 0.34 0.32 0.30 0.30 0.30 0.30 0.30 0.30 0.30 0.28 0.28 0.28 0.28 0.26 0.26 0.26 0.24 0.22 0.20 0.20 0.18 0.18 0.16 0.16 0.18 0.18 0.18 0.16 0.16 0.14 0.14 0.14 0.14 0.16 0.16 0.16 0.14 0.14 0.14 0.16 0.16 0.16 0.18 0.18 0.18 0.18 0.18 0.18 0.18 0.18 0.18 0.20 0.22 0.22 0.22 0.22 0.22 0.22 0.22 0.22 0.24 0.24 0.24 0.24 0.24 0.24 0.24 0.24 0.24 0.26 0.26 0.26 0.26 0.26 0.26 0.26 0.26 0.26 0.26 0.26 0.26 0.26
0.34 0.32 0.32 0.32 0.32 0.30 0.28 0.30 0.30 0.30 0.30 0.30 0.30 0.28 0.28 0.28 0.26 0.26 0.24 0.24 0.22 0.22 0.20 0.18 0.18 0.16 0.18 0.18 0.18 0.18 0.18 0.18 0.16 0.14 0.14 0.14 0.14 0.16 0.16 0.16 0.14 0.14 0.14 0.16 0.16 0.18 0.18 0.18 0.18 0.18 0.18 0.18 0.18 0.20 0.20 0.22 0.22 0.22 0.22 0.22 0.22 0.22 0.22 0.22 0.24 0.24 0.24 0.24 0.24 0.24 0.24 0.24 0.24 0.26 0.26 0.26 0.26 0.26 0.26 0.26 0.26 0.26 0.26 0.26 0.26 0.26
0.32 0.32 0.32 0.32 0.30 0.30 0.30 0.30 0.30 0.30 0.32 0.30 0.30 0.28 0.28 0.28 0.26 0.24 0.24 0.22 0.22 0.20 0.18 0.18 0.18 0.18 0.18 0.18 0.18 0.18 0.18 0.18 0.16 0.14 0.14 0.12 0.12 0.14 0.16 0.16 0.16 0.14 0.14 0.16 0.16 0.16 0.18 0.18 0.18 0.18 0.18 0.18 0.20 0.20 0.20 0.22 0.22 0.22 0.22 0.22 0.22 0.22 0.22 0.24 0.24 0.24 0.24 0.24 0.24 0.24 0.24 0.24 0.24 0.26 0.26 0.26 0.26 0.26 0.26 0.26 0.26 0.26 0.26 0.26 0.26 0.26
0.32 0.32 0.32 0.32 0.30 0.30 0.30 0.30 0.30 0.32 0.32 0.30 0.28 0.28 0.28 0.26 0.26 0.24 0.24 0.22 0.22 0.20 0.20 0.20 0.18 0.18 0.18 0.18 0.18 0.18 0.18 0.16 0.16 0.16 0.14 0.12 0.12 0.14 0.16 0.16 0.14 0.14 0.14 0.16 0.16 0.18 0.18 0.18 0.18 0.18 0.18 0.20 0.20 0.20 0.20 0.20 0.22 0.22 0.22 0.22 0.22 0.22 0.22 0.24 0.24 0.24 0.24 0.24 0.24 0.24 0.24 0.24 0.24 0.24 0.26 0.26 0.24 0.24 0.24 0.24 0.24 0.24 0.24 0.24 0.24 0.26
0.32 0.32 0.32 0.32 0.30 0.30 0.30 0.30 0.30 0.30 0.30 0.30 0.30 0.30 0.30 0.28 0.26 0.26 0.24 0.22 0.22 0.20 0.20 0.20 0.18 0.18 0.16 0.16 0.16 0.16 0.16 0.16 0.16 0.16 0.16 0.14 0.14 0.14 0.16 0.16 0.14 0.14 0.14 0.16 0.18 0.18 0.18 0.18 0.18 0.20 0.20 0.20 0.20 0.20 0.20 0.22 0.22 0.22 0.22 0.22 0.22 0.22 0.22 0.24 0.24 0.24 0.24 0.24 0.24 0.24 0.24 0.24 0.24 0.24 0.24 0.24 0.24 0.24 0.24 0.24 0.24 0.24 0.24 0.24 0.24 0.24
0.32 0.32 0.32 0.32 0.32 0.32 0.30 0.30 0.30 0.30 0.30 0.30 0.30 0.30 0.30 0.28 0.28 0.26 0.24 0.24 0.22 0.18 0.18 0.18 0.16 0.16 0.14 0.16 0.16 0.16 0.16 0.16 0.16 0.16 0.14 0.14 0.14 0.14 0.14 0.16 0.16 0.14 0.14 0.16 0.16 0.18 0.18 0.18 0.18 0.20 0.20 0.20 0.20 0.20 0.20 0.22 0.22 0.22 0.22 0.22 0.22 0.22 0.22 0.22 0.24 0.24 0.24 0.24 0.24 0.24 0.24 0.24 0.24 0.24 0.24 0.24 0.24 0.24 0.24 0.24 0.24 0.24 0.24 0.24 0.24 0.24
0.32 0.32 0.32 0.32 0.32 0.32 0.32 0.30 0.30 0.30 0.30 0.30 0.30 0.30 0.30 0.28 0.26 0.24 0.22 0.22 0.20 0.18 0.16 0.16 0.14 0.14 0.14 0.14 0.14 0.14 0.16 0.16 0.16 0.16 0.14 0.14 0.14 0.14 0.16 0.16 0.16 0.16 0.14 0.16 0.16 0.18 0.18 0.18 0.18 0.18 0.20 0.20 0.20 0.20 0.20 0.20 0.22 0.22 0.22 0.22 0.22 0.22 0.22 0.22 0.22 0.24 0.22 0.24 0.24 0.24 0.24 0.24 0.24 0.24 0.24 0.24 0.24 0.24 0.24 0.24 0.24 0.24 0.24 0.24 0.24 0.24
0.32 0.32 0.32 0.32 0.32 0.32 0.32 0.32 0.32 0.32 0.30 0.30 0.30 0.30 0.28 0.26 0.24 0.20 0.18 0.18 0.18 0.16 0.16 0.14 0.14 0.14 0.12 0.12 0.14 0.14 0.14 0.16 0.16 0.16 0.16 0.14 0.14 0.14 0.14 0.16 0.16 0.16 0.16 0.16 0.16 0.18 0.16 0.18 0.18 0.20 0.20 0.20 0.20 0.20 0.20 0.22 0.22 0.22 0.22 0.22 0.22 0.22 0.22 0.22 0.22 0.22 0.22 0.22 0.22 0.22 0.22 0.22 0.22 0.22 0.22 0.22 0.24 0.24 0.24 0.24 0.24 0.24 0.24 0.24 0.24 0.26
0.34 0.34 0.34 0.34 0.34 0.34 0.34 0.32 0.32 0.32 0.32 0.30 0.30 0.30 0.28 0.26 0.22 0.18 0.18 0.18 0.16 0.16 0.14 0.14 0.12 0.12 0.12 0.12 0.12 0.14 0.14 0.16 0.16 0.16 0.16 0.16 0.14 0.14 0.14 0.16 0.16 0.16 0.16 0.16 0.16 0.18 0.18 0.18 0.18 0.18 0.20 0.20 0.20 0.20 0.22 0.22 0.22 0.22 0.22 0.22 0.22 0.22 0.22 0.22 0.22 0.22 0.22 0.22 0.22 0.22 0.22 0.22 0.22 0.22 0.22 0.22 0.22 0.24 0.24 0.24 0.24 0.24 0.24 0.24 0.26 0.26
0.36 0.34 0.34 0.34 0.34 0.34 0.34 0.34 0.34 0.34 0.32 0.32 0.30 0.28 0.28 0.26 0.22 0.18 0.18 0.18 0.16 0.14 0.14 0.14 0.12 0.12 0.12 0.12 0.14 0.14 0.14 0.16 0.16 0.18 0.16 0.16 0.14 0.14 0.16 0.16 0.16 0.16 0.16 0.16 0.16 0.16 0.18 0.18 0.18 0.18 0.18 0.20 0.20 0.20 0.22 0.22 0.22 0.22 0.22 0.22 0.22 0.22 0.22 0.22 0.22 0.22 0.22 0.20 0.20 0.20 0.20 0.22 0.22 0.22 0.22 0.22 0.22 0.24 0.24 0.24 0.24 0.24 0.24 0.24 0.24 0.24
0.36 0.36 0.36 0.36 0.36 0.34 0.34 0.34 0.34 0.34 0.32 0.30 0.30 0.28 0.26 0.24 0.22 0.20 0.18 0.18 0.16 0.14 0.14 0.14 0.12 0.12 0.12 0.12 0.12 0.12 0.12 0.14 0.16 0.18 0.18 0.16 0.14 0.14 0.16 0.16 0.16 0.16 0.16 0.16 0.16 0.16 0.16 0.18 0.18 0.18 0.20 0.20 0.20 0.20 0.22 0.22 0.22 0.22 0.22 0.22 0.22 0.22 0.22 0.20 0.20 0.20 0.20 0.20 0.20 0.20 0.20 0.22 0.22 0.22 0.22 0.22 0.22 0.24 0.24 0.24 0.24 0.24 0.24 0.24 0.24 0.24
0.34 0.34 0.34 0.34 0.34 0.32 0.34 0.34 0.34 0.32 0.32 0.30 0.28 0.26 0.24 0.22 0.20 0.20 0.18 0.18 0.16 0.14 0.14 0.14 0.12 0.12 0.12 0.12 0.12 0.12 0.12 0.14 0.16 0.18 0.18 0.16 0.16 0.16 0.16 0.16 0.16 0.18 0.18 0.18 0.16 0.14 0.16 0.16 0.18 0.18 0.20 0.20 0.20 0.20 0.22 0.22 0.22 0.22 0.22 0.22 0.22 0.20 0.20 0.20 0.20 0.20 0.20 0.20 0.20 0.20 0.20 0.20 0.22 0.22 0.22 0.22 0.22 0.22 0.24 0.24 0.24 0.24 0.24 0.24 0.24 0.24
0.32 0.32 0.32 0.32 0.32 0.30 0.30 0.30 0.32 0.30 0.28 0.28 0.26 0.24 0.24 0.20 0.20 0.18 0.18 0.18 0.16 0.14 0.14 0.14 0.14 0.14 0.14 0.12 0.12 0.12 0.14 0.16 0.18 0.18 0.18 0.18 0.16 0.16 0.16 0.16 0.18 0.18 0.18 0.18 0.16 0.16 0.14 0.16 0.16 0.18 0.20 0.20 0.20 0.20 0.22 0.22 0.22 0.22 0.22 0.20 0.20 0.20 0.20 0.20 0.20 0.20 0.20 0.20 0.20 0.20 0.20 0.20 0.22 0.22 0.22 0.22 0.22 0.24 0.24 0.24 0.24 0.24 0.24 0.24 0.24 0.22
0.30 0.30 0.30 0.30 0.28 0.28 0.28 0.28 0.28 0.26 0.24 0.24 0.24 0.22 0.22 0.20 0.18 0.18 0.18 0.18 0.16 0.16 0.14 0.14 0.14 0.14 0.14 0.14 0.14 0.14 0.16 0.16 0.18 0.18 0.20 0.18 0.18 0.18 0.18 0.18 0.18 0.18 0.18 0.18 0.18 0.18 0.16 0.16 0.18 0.18 0.20 0.20 0.20 0.20 0.22 0.22 0.22 0.22 0.20 0.20 0.20 0.20 0.20 0.20 0.20 0.20 0.20 0.20 0.20 0.20 0.20 0.20 0.20 0.22 0.22 0.22 0.22 0.22 0.24 0.24 0.24 0.24 0.24 0.24 0.22 0.22
0.28 0.28 0.28 0.28 0.26 0.26 0.24 0.24 0.24 0.24 0.20 0.20 0.20 0.20 0.20 0.18 0.18 0.18 0.18 0.18 0.18 0.16 0.16 0.16 0.14 0.14 0.14 0.14 0.14 0.14 0.16 0.16 0.18 0.20 0.20 0.20 0.18 0.18 0.18 0.18 0.18 0.18 0.18 0.18 0.18 0.18 0.18 0.18 0.18 0.18 0.18 0.20 0.20 0.20 0.22 0.22 0.22 0.20 0.20 0.20 0.20 0.20 0.20 0.20 0.20 0.20 0.20 0.20 0.20 0.20 0.20 0.20 0.20 0.22 0.22 0.22 0.22 0.22 0.24 0.24 0.24 0.24 0.24 0.24 0.22 0.22
0.28 0.28 0.28 0.26 0.26 0.24 0.24 0.22 0.22 0.20 0.18 0.18 0.18 0.18 0.18 0.18 0.18 0.18 0.18 0.18 0.18 0.18 0.18 0.16 0.16 0.16 0.16 0.14 0.14 0.14 0.16 0.18 0.20 0.22 0.22 0.20 0.20 0.18 0.18 0.18 0.18 0.18 0.18 0.18 0.18 0.18 0.18 0.18 0.18 0.18 0.18 0.18 0.20 0.20 0.20 0.20 0.20 0.20 0.20 0.20 0.20 0.20 0.20 0.20 0.20 0.20 0.20 0.20 0.20 0.20 0.20 0.20 0.22 0.22 0.22 0.22 0.22 0.22 0.22 0.24 0.24 0.24 0.24 0.24 0.22 0.22
0.28 0.26 0.26 0.26 0.24 0.22 0.22 0.20 0.20 0.20 0.18 0.18 0.18 0.18 0.18 0.18 0.18 0.18 0.18 0.18 0.18 0.18 0.18 0.18 0.18 0.18 0.18 0.18 0.16 0.16 0.18 0.20 0.20 0.22 0.22 0.20 0.20 0.18 0.18 0.20 0.20 0.20 0.18 0.18 0.18 0.18 0.18 0.18 0.18 0.18 0.18 0.18 0.18 0.18 0.18 0.20 0.20 0.20 0.20 0.20 0.20 0.20 0.22 0.22 0.22 0.22 0.22 0.20 0.20 0.20 0.20 0.20 0.22 0.22 0.22 0.22 0.22 0.22 0.22 0.22 0.22 0.22 0.22 0.22 0.22 0.22
0.26 0.26 0.26 0.24 0.24 0.22 0.20 0.20 0.20 0.18 0.18 0.18 0.18 0.18 0.18 0.18 0.18 0.18 0.18 0.18 0.18 0.18 0.18 0.18 0.18 0.18 0.20 0.20 0.18 0.18 0.20 0.20 0.22 0.22 0.22 0.22 0.22 0.20 0.20 0.20 0.20 0.20 0.20 0.20 0.20 0.20 0.18 0.18 0.18 0.18 0.18 0.18 0.18 0.18 0.18 0.20 0.20 0.20 0.20 0.20 0.20 0.22 0.22 0.22 0.22 0.22 0.22 0.22 0.20 0.20 0.20 0.22 0.22 0.22 0.22 0.22 0.22 0.22 0.22 0.22 0.22 0.22 0.22 0.22 0.22 0.22
0.24 0.24 0.24 0.24 0.22 0.20 0.20 0.20 0.18 0.18 0.18 0.18 0.18 0.18 0.18 0.18 0.18 0.18 0.18 0.18 0.18 0.18 0.18 0.18 0.20 0.20 0.20 0.20 0.20 0.20 0.22 0.22 0.22 0.22 0.22 0.22 0.22 0.22 0.20 0.20 0.22 0.22 0.22 0.22 0.20 0.20 0.20 0.18 0.18 0.16 0.18 0.18 0.18 0.18 0.18 0.18 0.20 0.20 0.20 0.20 0.22 0.22 0.22 0.22 0.24 0.22 0.22 0.22 0.22 0.22 0.22 0.22 0.22 0.22 0.22 0.22 0.22 0.22 0.22 0.22 0.22 0.22 0.22 0.22 0.20 0.20
0.24 0.24 0.22 0.22 0.22 0.20 0.20 0.18 0.18 0.18 0.18 0.18 0.18 0.18 0.18 0.18 0.18 0.18 0.18 0.18 0.18 0.20 0.20 0.20 0.20 0.20 0.20 0.22 0.22 0.22 0.22 0.22 0.22 0.22 0.22 0.24 0.24 0.22 0.22 0.22 0.22 0.22 0.22 0.22 0.22 0.20 0.18 0.18 0.18 0.16 0.16 0.16 0.16 0.18 0.18 0.20 0.20 0.20 0.20 0.22 0.22 0.22 0.22 0.22 0.24 0.22 0.22 0.22 0.22 0.22 0.22 0.22 0.22 0.22 0.22 0.22 0.22 0.22 0.20 0.20 0.20 0.20 0.20 0.20 0.20 0.20
0.22 0.22 0.22 0.20 0.20 0.20 0.20 0.18 0.18 0.18 0.18 0.18 0.18 0.18 0.18 0.18 0.18 0.18 0.18 0.18 0.18 0.20 0.20 0.20 0.20 0.20 0.20 0.22 0.22 0.22 0.22 0.24 0.24 0.24 0.24 0.24 0.24 0.24 0.24 0.22 0.22 0.22 0.22 0.22 0.22 0.20 0.20 0.18 0.18 0.18 0.18 0.18 0.18 0.18 0.20 0.20 0.20 0.22 0.22 0.22 0.20 0.22 0.22 0.22 0.22 0.22 0.22 0.22 0.22 0.22 0.22 0.22 0.22 0.22 0.22 0.22 0.22 0.20 0.22 0.20 0.20 0.20 0.20 0.20 0.20 0.18
0.20 0.20 0.20 0.20 0.20 0.20 0.20 0.20 0.18 0.18 0.18 0.18 0.18 0.18 0.18 0.18 0.18 0.18 0.18 0.18 0.18 0.20 0.20 0.20 0.20 0.20 0.20 0.22 0.22 0.22 0.22 0.24 0.24 0.24 0.24 0.24 0.24 0.24 0.24 0.24 0.24 0.22 0.22 0.22 0.20 0.20 0.20 0.18 0.18 0.18 0.18 0.18 0.20 0.20 0.20 0.20 0.22 0.22 0.22 0.20 0.20 0.22 0.22 0.22 0.22 0.22 0.22 0.22 0.22 0.22 0.22 0.22 0.22 0.22 0.22 0.22 0.22 0.22 0.22 0.20 0.20 0.20 0.20 0.20 0.20 0.18
0.20 0.20 0.20 0.20 0.18 0.18 0.18 0.20 0.20 0.18 0.18 0.18 0.18 0.18 0.18 0.18 0.18 0.18 0.18 0.18 0.18 0.18 0.20 0.20 0.20 0.20 0.20 0.20 0.22 0.22 0.24 0.24 0.24 0.24 0.24 0.24 0.24 0.24 0.24 0.24 0.22 0.22 0.22 0.20 0.20 0.20 0.20 0.18 0.20 0.20 0.20 0.20 0.20 0.20 0.20 0.20 0.22 0.22 0.22 0.22 0.22 0.22 0.22 0.22 0.22 0.22 0.22 0.22 0.22 0.22 0.22 0.22 0.22 0.22 0.22 0.22 0.22 0.22 0.22 0.22 0.20 0.20 0.20 0.20 0.20 0.20
0.20 0.18 0.18 0.18 0.18 0.18 0.18 0.18 0.18 0.18 0.18 0.18 0.18 0.18 0.18 0.18 0.18 0.18 0.18 0.18 0.18 0.20 0.20 0.20 0.20 0.20 0.20 0.20 0.20 0.20 0.22 0.24 0.24 0.24 0.24 0.24 0.24 0.24 0.24 0.24 0.22 0.22 0.22 0.20 0.20 0.20 0.20 0.20 0.20 0.20 0.20 0.22 0.22 0.22 0.20 0.20 0.22 0.22 0.22 0.22 0.22 0.20 0.20 0.20 0.22 0.22 0.22 0.22 0.22 0.22 0.22 0.22 0.22 0.22 0.22 0.22 0.22 0.22 0.22 0.22 0.20 0.20 0.20 0.20 0.20 0.20
0.20 0.20 0.20 0.18 0.18 0.18 0.18 0.18 0.18 0.18 0.16 0.16 0.16 0.16 0.18 0.18 0.18 0.18 0.18 0.18 0.18 0.20 0.20 0.20 0.20 0.20 0.20 0.20 0.20 0.20 0.22 0.24 0.24 0.24 0.24 0.24 0.24 0.24 0.24 0.22 0.22 0.22 0.22 0.20 0.20 0.20 0.20 0.20 0.22 0.22 0.22 0.22 0.22 0.22 0.22 0.22 0.22 0.22 0.22 0.22 0.20 0.20 0.20 0.20 0.20 0.20 0.22 0.22 0.22 0.22 0.22 0.22 0.22 0.22 0.22 0.22 0.22 0.22 0.22 0.20 0.20 0.20 0.20 0.20 0.20 0.20
0.20 0.18 0.18 0.18 0.18 0.18 0.18 0.16 0.16 0.16 0.16 0.16 0.16 0.18 0.18 0.18 0.18 0.18 0.18 0.18 0.20 0.20 0.20 0.20 0.20 0.20 0.20 0.20 0.20 0.22 0.22 0.22 0.24 0.24 0.24 0.24 0.24 0.24 0.22 0.22 0.22 0.22 0.22 0.20 0.20 0.22 0.20 0.20 0.22 0.22 0.22 0.24 0.22 0.22 0.22 0.22 0.20 0.20 0.20 0.22 0.22 0.20 0.20 0.20 0.20 0.22 0.20 0.22 0.22 0.22 0.22 0.22 0.22 0.22 0.22 0.20 0.20 0.20 0.20 0.20 0.18 0.18 0.18 0.18 0.20 0.20
0.18 0.18 0.18 0.16 0.16 0.16 0.16 0.16 0.16 0.16 0.16 0.16 0.18 0.18 0.18 0.18 0.20 0.20 0.20 0.20 0.20 0.20 0.20 0.20 0.20 0.20 0.20 0.20 0.20 0.22 0.22 0.22 0.22 0.22 0.22 0.22 0.22 0.22 0.22 0.22 0.22 0.22 0.22 0.22 0.22 0.24 0.22 0.22 0.22 0.22 0.22 0.22 0.22 0.22 0.22 0.20 0.20 0.20 0.20 0.20 0.20 0.20 0.20 0.20 0.22 0.22 0.22 0.22 0.22 0.22 0.22 0.22 0.22 0.20 0.20 0.18 0.18 0.18 0.18 0.18 0.18 0.18 0.18 0.18 0.18 0.18
0.16 0.16 0.16 0.16 0.16 0.16 0.16 0.16 0.16 0.16 0.16 0.16 0.18 0.18 0.18 0.18 0.20 0.20 0.20 0.20 0.20 0.20 0.20 0.20 0.20 0.20 0.20 0.20 0.20 0.20 0.20 0.20 0.20 0.20 0.22 0.20 0.20 0.22 0.22 0.22 0.24 0.24 0.24 0.24 0.24 0.24 0.24 0.24 0.24 0.24 0.22 0.22 0.20 0.20 0.20 0.20 0.20 0.20 0.20 0.20 0.20 0.20 0.20 0.20 0.20 0.22 0.22 0.22 0.22 0.22 0.22 0.22 0.20 0.20 0.18 0.18 0.18 0.18 0.18 0.18 0.18 0.18 0.18 0.18 0.18 0.18
0.16 0.16 0.16 0.16 0.16 0.16 0.16 0.16 0.16 0.16 0.16 0.16 0.16 0.18 0.18 0.20 0.20 0.20 0.20 0.20 0.20 0.22 0.22 0.22 0.22 0.22 0.22 0.22 0.22 0.20 0.20 0.20 0.20 0.20 0.20 0.20 0.20 0.22 0.22 0.22 0.24 0.24 0.24 0.24 0.24 0.24 0.24 0.24 0.24 0.24 0.24 0.22 0.20 0.20 0.20 0.20 0.20 0.20 0.20 0.20 0.20 0.20 0.20 0.20 0.20 0.22 0.22 0.22 0.22 0.22 0.22 0.20 0.20 0.18 0.18 0.18 0.16 0.16 0.16 0.16 0.16 0.18 0.18 0.18 0.18 0.18
0.16 0.16 0.16 0.16 0.16 0.16 0.16 0.16 0.16 0.16 0.16 0.16 0.18 0.18 0.20 0.20 0.20 0.20 0.20 0.20 0.22 0.22 0.22 0.22 0.22 0.22 0.22 0.22 0.22 0.20 0.20 0.20 0.18 0.18 0.20 0.20 0.20 0.22 0.22 0.22 0.22 0.24 0.24 0.24 0.24 0.24 0.24 0.24 0.24 0.24 0.24 0.22 0.20 0.20 0.20 0.20 0.20 0.20 0.20 0.20 0.20 0.20 0.20 0.20 0.20 0.20 0.22 0.22 0.20 0.20 0.20 0.20 0.20 0.18 0.18 0.16 0.16 0.16 0.16 0.16 0.16 0.16 0.18 0.18 0.18 0.18
0.16 0.16 0.16 0.16 0.16 0.16 0.16 0.16 0.16 0.16 0.16 0.18 0.18 0.18 0.20 0.20 0.20 0.22 0.22 0.22 0.22 0.22 0.22 0.22 0.22 0.22 0.22 0.20 0.20 0.20 0.18 0.18 0.18 0.18 0.20 0.20 0.20 0.22 0.22 0.22 0.22 0.22 0.22 0.22 0.22 0.22 0.22 0.24 0.24 0.24 0.24 0.22 0.22 0.20 0.20 0.20 0.20 0.20 0.20 0.20 0.20 0.20 0.20 0.20 0.20 0.20 0.20 0.20 0.20 0.20 0.20 0.20 0.18 0.18 0.18 0.16 0.16 0.16 0.16 0.16 0.16 0.16 0.18 0.18 0.18 0.20
0.16 0.16 0.16 0.16 0.16 0.16 0.16 0.16 0.16 0.18 0.18 0.18 0.18 0.20 0.20 0.20 0.20 0.22 0.22 0.24 0.24 0.24 0.24 0.24 0.22 0.22 0.20 0.20 0.20 0.18 0.18 0.18 0.18 0.18 0.20 0.20 0.22 0.22 0.22 0.22 0.22 0.20 0.20 0.20 0.20 0.20 0.20 0.20 0.20 0.20 0.20 0.22 0.24 0.22 0.20 0.20 0.20 0.20 0.20 0.20 0.20 0.20 0.20 0.20 0.20 0.20 0.20 0.20 0.20 0.20 0.18 0.18 0.18 0.18 0.18 0.16 0.16 0.14 0.14 0.14 0.16 0.16 0.18 0.18 0.18 0.18
Wind_Speed
27 27 26 26 26 26 26 26 25 25 25 25 25 25 25 24 24 24 24 25 25 25 25 25 25 25 26 26 26 26 26 27 27 27 27 27 27 27 26 26 26 26 26 27 27 28 28 28 28 28 27 27 27 27 28 28 29 29 29 28 27 27 26 25 24 23 22 21 20 19 19 18 18 18 18 18 18 18 18 18 18 18 18 18 18 17
27 27 27 27 26 26 26 26 26 25 25 25 25 25 25 25 25 25 25 25 25 25 25 25 26 26 26 26 26 27 27 27 27 27 27 27 27 26 26 26 26 26 27 27 27 28 28 28 27 27 27 27 27 27 28 28 28 28 27 27 26 25 24 23 22 21 20 19 19 18 18 18 18 18 18 18 18 18 18 18 18 18 18 18 18 18
26 27 27 27 27 26 26 26 26 26 25 25 25 25 25 25 25 26 26 26 26 26 26 26 26 26 26 26 27 27 27 27 27 27 27 27 26 26 26 26 26 27 27 27 28 28 28 27 27 27 27 27 27 27 27 27 27 26 26 25 24 23 22 21 20 20 19 18 18 18 17 17 18 18 18 18 18 18 18 18 18 18 18 19 18 18
26 27 27 27 27 27 27 26 26 26 26 26 25 25 25 25 26 26 26 26 26 26 26 26 26 26 26 27 27 27 27 27 27 27 27 26 26 26 26 26 27 27 27 28 28 27 27 27 26 26 26 26 26 26 26 26 26 25 24 24 23 22 21 20 19 19 18 18 18 17 17 18 18 18 18 18 18 18 18 18 19 19 19 19 19 19
27 27 27 27 27 27 27 27 26 26 26 26 26 26 26 26 26 26 26 26 26 27 27 27 27 27 27 27 27 27 27 27 27 27 26 26 26 26 26 27 27 27 27 28 27 27 27 26 26 26 26 26 26 26 26 25 24 24 23 22 22 21 20 19 19 18 18 17 17 17 18 18 18 18 18 18 18 19 19 19 19 19 19 19 19 19
27 27 27 27 27 27 27 27 27 26 26 26 26 26 26 26 26 26 26 26 26 27 27 27 27 27 27 27 27 27 27 27 27 26 26 26 26 26 27 27 27 27 28 27 27 26 26 26 26 26 26 26 25 25 25 24 23 23 22 21 21 20 19 19 18 18 18 17 17 18 18 18 18 18 18 19 19 19 19 19 19 19 19 20 20 20
27 27 27 27 27 27 27 27 27 27 26 26 26 26 26 26 26 26 26 26 26 27 27 27 27 27 27 27 27 27 27 26 26 26 26 26 27 27 27 27 27 27 27 27 26 26 26 25 25 25 25 25 25 24 24 23 22 22 21 21 20 19 19 18 18 18 18 18 18 18 18 18 18 19 19 19 19 19 19 19 20 20 20 20 20 20
27 28 28 27 27 27 27 27 27 27 27 27 27 27 27 26 26 26 26 26 26 27 27 27 27 27 27 27 27 27 27 26 26 27 27 27 27 27 27 27 27 27 27 26 26 25 25 25 25 25 25 25 24 24 23 22 22 21 21 20 20 19 19 18 18 18 18 18 18 18 19 19 19 19 19 19 19 20 20 20 20 20 20 21 21 21
27 28 28 28 28 27 27 27 27 27 27 27 27 27 26 26 26 26 26 26 26 27 27 27 27 27 27 27 26 26 27 27 27 27 27 27 27 27 27 27 27 27 26 26 25 25 25 25 25 24 24 24 24 23 23 22 21 21 20 20 20 19 19 19 19 19 19 19 19 19 19 19 19 20 20 20 20 20 20 20 21 21 21 21 22 22
28 28 28 28 28 28 27 27 27 28 27 27 27 27 26 26 26 26 26 26 27 27 27 27 26 26 27 27 27 27 27 27 27 27 27 27 27 27 27 27 27 26 26 25 25 25 24 24 24 24 24 23 23 23 22 22 21 21 20 20 20 19 19 19 19 19 19 19 19 20 20 20 20 20 20 20 21 21 21 21 21 22 22 22 22 23
28 28 28 28 28 28 28 28 28 27 27 27 27 27 27 26 26 26 26 27 27 27 27 27 27 26 26 27 27 27 27 27 27 27 27 27 27 27 27 27 26 26 25 25 24 24 24 24 24 24 23 23 23 22 22 22 21 21 21 20 20 20 20 20 20 20 20 20 20 20 20 20 21 21 21 21 21 21 22 22 22 22 23 23 23 23
28 28 28 28 28 28 27 27 27 27 27 27 27 27 27 27 27 27 27 27 27 27 27 27 27 27 27 27 27 27 27 27 27 27 27 27 27 27 27 27 26 25 25 24 24 24 24 24 24 24 23 23 23 22 22 22 22 21 21 21 21 20 20 20 20 21 21 21 21 21 21 21 21 21 22 22 22 22 22 23 23 23 23 24 24 24
29 28 28 28 28 28 27 27 27 27 27 27 27 27 27 27 27 27 27 27 27 27 27 27 27 27 27 27 27 27 27 27 28 27 27 27 27 27 26 26 25 25 24 24 24 24 24 24 24 24 23 23 23 23 22 22 22 22 21 21 21 21 21 21 21 21 21 21 22 22 22 22 22 22 22 22 23 23 23 23 24 24 24 24 25 25
29 28 28 28 28 28 27 27 27 27 27 27 27 27 27 27 27 27 27 27 27 27 27 27 27 27 27 27 28 28 28 28 27 27 27 27 27 26 26 25 25 25 24 24 24 24 24 24 24 24 23 23 23 23 23 23 22 22 22 22 22 22 22 22 22 22 22 22 22 22 22 23 23 23 23 23 23 24 24 24 24 25 25 25 25 26
29 28 28 28 28 28 27 27 27 27 27 27 27 27 27 27 27 27 27 27 27 27 27 27 27 27 28 28 28 28 28 28 27 27 27 27 27 26 25 25 25 24 24 24 24 24 24 24 24 24 24 24 23 23 23 23 23 23 22 22 22 22 22 22 23 23 23 23 23 23 23 23 23 24 24 24 24 24 24 25 25 25 25 26 26 26
29 29 28 28 28 27 27 27 27 27 27 27 27 27 27 27 27 27 27 27 27 27 27 27 27 27 28 28 28 28 28 27 27 27 26 26 26 26 25 25 25 24 24 24 24 24 24 24 24 24 24 24 24 24 24 24 24 23 23 23 23 23 23 23 23 23 23 23 24 24 24 24 24 24 24 25 25 25 25 25 25 26 26 26 27 27
29 29 28 28 27 27 27 27 27 27 27 27 27 27 27 27 28 27 27 27 27 27 27 27 27 28 28 28 28 28 27 27 27 27 26 26 26 25 25 24 24 24 24 24 24 24 24 24 24 24 24 24 24 25 24 24 24 24 24 23 23 23 24 24 24 24 24 24 24 24 24 25 25 25 25 25 25 25 26 26 26 26 27 27 27 28
29 29 28 28 27 27 27 27 27 27 27 27 27 28 28 28 28 27 27 27 27 27 27 28 28 28 28 27 28 28 27 27 27 27 26 25 25 25 24 24 24 25 25 24 24 25 25 25 25 25 25 25 25 25 25 25 25 24 24 24 24 24 24 24 24 24 24 24 25 25 25 25 25 25 26 26 26 26 26 26 27 27 27 28 28 28
29 29 28 28 27 27 27 27 27 27 27 27 28 28 28 28 28 27 27 27 27 27 28 28 28 28 27 27 27 27 27 27 27 26 26 25 25 25 24 24 24 25 25 25 25 25 25 25 25 25 25 25 26 25 25 25 25 25 25 24 24 24 24 25 25 25 25 25 25 25 25 26 26 26 26 26 26 27 27 27 27 28 28 28 28 29
29 29 28 28 27 27 27 28 28 28 28 28 28 27 27 28 27 27 28 28 28 28 28 28 28 27 27 27 27 27 27 27 26 26 25 25 25 25 24 24 24 25 25 25 25 25 25 25 25 26 26 26 26 26 26 26 25 25 25 25 25 25 25 25 25 25 25 25 26 26 26 26 26 26 26 27 27 27 27 28 28 28 28 29 29 29
29 28 28 28 28 27 28 28 28 28 28 28 28 28 28 27 27 27 28 28 28 28 28 27 27 27 27 27 27 27 27 26 26 25 25 25 25 25 24 24 25 25 25 25 25 25 25 25 26 26 26 26 26 26 26 26 26 25 25 25 25 25 25 25 26 26 26 26 26 26 26 26 27 27 27 27 27 28 28 28 28 29 29 29 29 30
29 28 28 28 28 28 28 28 28 28 28 28 28 28 28 28 27 28 28 28 28 27 27 27 27 27 27 27 27 27 26 26 25 25 25 25 25 25 25 25 25 25 25 25 25 25 25 26 26 26 26 26 26 26 26 26 26 25 25 25 26 26 26 26 26 26 26 26 26 26 27 27 27 27 27 27 28 28 28 29 29 29 29 30 30 30
29 29 28 28 28 28 28 28 28 28 28 28 28 28 28 28 28 28 28 28 27 27 27 27 27 27 27 27 27 27 26 26 25 25 25 25 25 25 25 25 25 25 25 25 25 25 26 26 26 26 26 26 26 26 26 26 26 26 26 26 26 26 26 26 26 26 26 26 26 27 27 27 27 27 28 28 28 28 29 29 29 30 30 30 31 31
29 29 29 28 28 28 28 28 28 28 29 29 28 28 28 28 28 28 28 28 28 27 27 27 27 27 27 27 27 26 26 25 25 25 25 25 25 25 25 25 25 25 26 26 26 26 26 26 26 26 26 26 26 26 26 26 26 26 26 26 26 26 26 26 26 26 26 27 27 27 27 27 27 28 28 28 28 29 29 30 30 30 31 31 31 32
29 29 29 29 29 28 28 29 29 29 29 29 28 28 28 28 28 28 28 28 28 27 27 27 27 27 26 26 26 26 25 25 24 24 24 24 25 25 25 25 25 25 26 26 26 26 26 26 26 26 26 26 26 26 26 26 26 26 26 27 27 27 27 27 27 27 27 27 27 27 27 27 28 28 28 28 29 29 30 30 30 31 31 32 32 32
29 29 29 28 28 28 28 29 29 29 29 29 29 28 28 28 28 28 28 28 27 27 27 27 27 26 26 25 25 25 25 25 24 24 24 24 24 25 25 25 25 25 26 26 26 26 26 26 26 26 26 26 26 26 26 26 26 27 27 27 27 27 27 27 27 27 27 27 27 27 27 28 28 28 28 29 29 29 30 30 31 31 32 32 32 33
28 28 28 28 28 28 29 29 29 29 29 29 29 29 28 28 28 27 27 27 27 27 27 27 26 26 25 25 24 24 24 24 24 24 24 24 24 24 24 24 25 25 26 26 26 26 26 26 26 26 26 26 25 25 26 26 27 27 27 27 27 27 27 27 27 27 27 27 27 27 28 28 28 28 29 29 29 30 30 31 31 32 32 33 33 33
28 28 28 28 29 29 29 29 29 29 29 29 29 29 28 28 27 27 27 27 27 27 27 26 26 25 25 24 24 24 24 24 24 24 24 23 24 24 24 24 24 25 25 25 26 26 26 26 26 26 26 25 25 25 26 27 27 28 28 28 27 27 27 27 27 27 27 27 28 28 28 28 28 29 29 30 30 30 31 31 32 32 33 33 33 33
28 28 29 29 29 29 29 29 29 29 29 29 29 29 28 28 28 27 27 27 26 26 26 26 25 24 24 24 24 24 24 24 24 24 23 23 24 24 24 24 24 24 25 25 25 26 25 25 25 25 25 25 25 26 26 27 27 28 28 27 27 27 27 27 27 27 28 28 28 28 28 29 29 29 30 30 30 31 31 32 32 33 33 33 33 33
29 29 29 29 29 29 29 29 29 29 29 29 29 29 28 28 28 27 27 27 26 26 25 25 24 24 24 23 23 23 23 24 23 23 23 23 23 24 23 23 24 24 24 24 25 25 25 25 25 25 25 25 26 26 27 27 27 27 27 27 27 27 27 27 28 28 28 28 28 29 29 29 29 30 30 31 31 32 32 32 33 33 33 33 34 34
29 29 29 29 29 29 29 29 29 29 29 29 29 29 29 28 28 27 27 26 26 25 25 24 24 24 23 23 23 23 23 23 23 23 23 23 23 23 23 23 23 24 24 24 24 24 25 25 25 25 25 26 26 27 27 27 27 27 27 27 27 27 27 28 28 28 28 29 29 29 29 30 30 31 31 31 32 32 33 33 33 34 34 34 35 35
30 30 30 30 30 30 29 29 29 29 29 29 29 29 28 28 27 27 26 26 25 25 24 24 24 23 23 23 23 23 23 23 23 23 22 22 23 23 23 23 23 24 24 24 24 24 24 24 25 25 25 26 26 27 27 27 27 27 27 27 27 27 28 28 28 29 29 29 29 30 30 30 31 31 32 32 33 33 33 34 34 34 35 35 36 36
30 30 30 30 30 30 30 29 29 29 29 29 29 28 28 27 27 26 26 25 25 24 24 23 23 23 23 23 23 22 22 22 23 23 22 22 23 23 23 23 23 23 24 24 24 24 24 24 25 25 25 25 26 26 26 26 26 27 27 27 27 27 28 28 28 29 29 29 30 30 31 31 32 32 32 33 33 33 34 34 35 35 36 36 37 37
30 30 30 30 30 30 30 30 29 29 29 29 28 28 27 27 26 26 25 25 24 24 23 23 23 22 22 22 22 22 22 22 22 22 22 22 22 23 23 23 23 23 24 24 24 24 24 25 25 25 25 25 25 25 26 26 26 26 27 27 27 28 28 28 28 29 29 30 30 31 31 32 32 32 33 33 34 34 35 35 36 36 37 37 37 38
30 30 30 30 30 29 29 29 29 29 28 28 28 27 27 26 25 25 24 24 24 23 23 23 23 22 22 22 22 22 22 22 22 22 22 22 22 23 23 23 23 23 23 24 24 24 24 24 25 25 25 25 25 25 25 25 26 26 27 27 27 28 28 28 29 29 30 30 31 31 32 32 32 33 33 34 34 35 36 36 37 37 38 38 38 38
30 30 30 29 29 29 29 28 28 28 28 27 27 26 26 25 25 24 24 23 23 23 23 23 22 22 22 22 22 22 22 22 22 22 22 22 23 23 23 23 23 23 23 24 24 24 24 24 25 25 25 25 25 25 25 25 25 26 26 27 27 28 28 29 29 30 30 31 31 31 32 32 33 33 34 34 35 36 37 37 38 38 38 38 39 39
30 30 29 29 28 28 28 27 27 27 27 26 26 25 25 25 24 24 23 23 23 23 23 22 22 22 22 22 22 22 22 22 22 22 22 23 23 23 23 23 24 23 23 24 24 24 24 24 25 25 25 25 25 25 25 25 25 26 26 27 28 28 29 29 30 30 30 31 31 32 32 33 33 34 35 35 36 36 37 37 37 38 38 38 39 39
29 29 29 28 28 27 27 27 26 26 26 25 25 25 24 24 24 23 23 23 23 23 22 22 22 22 22 22 22 22 22 22 22 22 23 23 23 23 23 24 24 24 24 24 24 24 24 24 24 24 24 25 25 25 25 25 26 26 27 27 28 29 29 30 30 30 31 31 32 32 33 33 34 35 35 36 36 36 37 37 37 38 38 39 39 39
29 28 28 27 27 27 26 26 26 25 25 25 24 24 24 24 23 23 23 23 23 22 22 22 22 22 22 22 22 22 23 23 23 23 23 23 23 24 24 24 24 24 24 24 24 24 24 24 24 24 24 25 25 25 25 26 26 27 27 28 28 29 29 30 30 31 31 32 32 33 33 34 34 35 35 36 36 36 36 37 37 38 38 38 39 39
28 27 27 27 27 26 26 25 25 25 24 24 24 24 23 23 23 23 23 23 22 22 22 22 22 22 22 22 23 23 23 23 23 23 23 24 24 24 24 24 24 24 24 24 24 24 24 24 24 24 25 25 25 25 26 26 27 27 28 28 29 29 29 30 31 31 32 32 33 33 34 34 35 35 36 36 36 36 36 37 37 38 38 38 38 39
27 27 26 26 26 25 25 25 24 24 24 24 23 23 23 23 23 22 22 22 22 22 22 22 22 22 23 23 23 23 23 23 23 24 24 24 24 24 24 24 24 24 24 24 24 24 24 24 24 25 25 25 25 26 26 27 27 28 28 29 29 30 30 31 31 32 32 33 33 34 34 35 35 36 36 36 36 36 37 37 38 38 38 39 39 39
27 26 26 25 25 25 24 24 24 23 23 23 23 23 23 23 22 22 22 22 22 22 22 22 22 22 22 22 23 23 23 23 24 24 24 24 24 24 24 24 24 24 24 24 24 24 24 24 24 25 25 25 26 26 27 27 28 28 29 29 30 30 31 31 31 32 32 33 33 34 35 35 35 36 36 36 36 37 37 37 38 38 39 39 39 39
26 26 25 25 25 24 24 23 23 23 23 23 23 23 23 22 22 22 22 22 21 21 22 22 22 22 22 22 23 23 23 23 24 24 24 24 24 24 24 24 24 24 24 24 24 24 24 24 25 25 25 26 26 27 27 28 28 29 29 29 30 30 30 31 31 32 32 33 34 35 35 35 35 36 36 36 37 37 37 38 38 38 39 39 39 40
26 25 25 24 24 24 23 23 23 23 23 23 23 23 23 22 22 22 22 22 21 21 21 22 22 22 22 23 23 23 23 23 24 24 24 24 24 24 24 24 24 24 24 24 24 24 24 24 25 25 26 26 27 27 28 28 29 29 29 30 30 30 31 31 32 33 33 34 34 35 35 35 36 36 36 36 37 37 37 38 38 39 39 39 40 40
25 25 24 24 24 23 23 23 23 23 23 23 22 22 22 22 22 22 22 22 21 21 22 22 22 22 22 22 23 22 23 23 23 24 24 24 24 24 24 24 24 24 24 24 24 24 24 25 25 26 26 26 27 27 28 28 29 29 30 30 30 31 32 32 33 33 34 34 34 35 35 35 36 36 36 36 36 37 37 38 38 39 39 40 40 40
25 24 24 24 23 23 23 23 23 23 23 23 22 22 22 22 22 22 22 22 21 21 22 22 22 22 22 22 22 22 23 23 23 23 23 23 24 24 24 24 24 24 24 24 25 25 25 25 26 26 26 27 27 28 28 29 29 29 30 30 31 31 32 33 33 34 34 34 35 35 35 35 36 36 36 36 37 37 37 38 38 39 39 40 40 40
25 24 24 23 23 23 23 23 23 23 23 23 22 22 22 22 22 22 22 22 22 22 22 22 22 22 23 23 23 22 22 23 23 23 23 23 23 23 23 23 24 24 24 25 25 26 26 26 26 27 27 27 28 28 28 29 29 30 30 31 31 32 32 33 33 34 34 34 34 35 35 35 36 36 37 37 37 38 38 38 39 39 39 40 40 40
24 24 24 23 23 23 23 23 23 23 22 22 22 22 22 22 22 22 22 22 22 22 22 22 22 22 23 23 23 23 23 23 22 22 22 22 22 23 23 23 23 24 24 25 25 26 26 27 27 27 27 27 28 28 29 29 29 30 31 31 32 32 33 33 34 34 34 34 34 35 35 35 36 36 37 37 38 38 38 39 39 39 39 39 39 39
24 24 23 23 23 23 23 23 23 23 22 22 22 22 22 22 22 22 22 22 22 22 22 22 22 22 22 22 22 22 22 22 22 22 22 22 22 22 23 23 23 24 24 25 25 26 26 27 27 28 28 28 28 29 29 29 30 30 31 32 32 33 33 34 34 34 34 34 35 35 35 36 36 37 37 38 38 39 39 39 39 39 39 39 39 39
24 23 23 23 23 23 23 23 23 22 22 22 22 21 21 22 22 22 22 22 22 22 22 22 22 22 22 22 22 22 22 22 22 22 22 22 22 22 23 23 23 23 24 24 25 25 26 26 27 28 28 28 28 29 29 30 30 31 31 32 32 33 33 34 34 34 34 34 35 35 36 36 37 37 38 38 39 39 39 39 39 39 38 38 38 38
24 23 23 23 23 23 23 23 22 22 22 22 22 21 21 21 21 22 22 22 22 22 22 22 22 22 22 22 22 22 22 22 22 22 22 22 22 23 23 23 23 23 24 24 25 25 25 26 26 27 28 28 28 29 29 30 31 31 32 32 33 33 33 34 34 34 35 35 35 36 36 37 37 38 38 38 39 39 39 39 39 38 38 38 38 38
Wind_Direction
236 236 237 238 240 242 243 245 246 248 250 251 253 254 256 257 259 260 262 263 265 267 268 270 272 273 275 276 277 278 279 280 281 282 283 284 284 285 286 287 288 289 290 292 293 295 297 298 298 298 299 299 300 302 304 305 307 308 309 310 311 312 312 313 313 314 314 315 316 317 319 320 321 322 323 324 324 325 325 325 326 326 326 326 326 326
236 237 238 239 241 243 244 245 247 249 250 252 253 254 255 257 258 260 261 263 265 266 268 270 272 273 275 276 276 277 278 279 280 281 282 283 284 284 285 286 287 289 290 292 294 296 297 297 298 298 299 300 301 302 304 306 307 308 309 310 311 311 312 312 312 313 313 314 316 317 318 319 320 321 322 322 323 323 324 324 324 324 324 324 324 324
237 238 239 240 242 243 245 246 247 249 250 252 253 254 255 257 258 260 261 263 265 266 268 269 271 273 274 275 276 277 278 279 280 280 281 282 283 284 285 286 287 289 291 293 294 296 296 297 297 298 299 300 301 303 304 306 307 308 309 309 310 310 310 311 311 311 312 313 314 315 317 318 319 319 320 320 321 321 322 322 322 323 323 323 323 323
238 239 240 241 243 244 246 247 248 249 250 252 253 254 255 257 259 260 261 263 264 266 268 269 271 272 273 275 275 276 278 278 279 280 280 281 282 283 284 286 288 289 291 293 294 295 295 296 296 297 298 300 301 303 304 305 306 307 308 308 309 309 309 309 309 310 311 312 313 314 315 316 317 318 318 318 319 319 320 320 321 321 321 321 321 321
240 240 241 242 244 245 246 247 248 249 250 252 253 255 256 257 259 260 261 263 264 266 267 269 270 271 273 274 275 276 277 278 279 279 280 281 282 283 284 286 288 290 292 293 294 294 294 295 296 297 298 300 301 303 304 305 306 306 307 307 307 307 307 307 307 308 309 310 311 312 313 314 315 315 316 316 317 317 318 318 319 319 320 320 320 320
241 242 242 243 245 246 247 247 248 249 251 252 254 255 257 258 259 260 262 263 264 265 267 268 269 271 272 273 275 276 277 278 278 279 280 281 282 283 285 287 288 290 292 293 293 293 294 294 295 297 298 300 301 302 303 304 304 305 305 305 305 305 305 305 305 306 307 308 309 310 311 312 313 313 314 314 315 316 316 317 317 318 318 318 318 318
242 243 243 244 246 247 247 248 249 250 251 253 254 255 257 258 259 260 262 263 264 265 266 267 269 270 272 273 274 276 276 277 278 279 279 281 282 283 285 287 289 290 291 292 292 292 293 294 295 297 298 299 300 301 302 302 302 303 303 303 303 303 303 303 304 304 305 306 307 308 309 310 311 311 312 313 313 314 314 315 315 316 316 316 317 317
242 243 244 245 246 247 248 248 249 250 252 253 254 256 257 258 259 260 261 262 263 264 266 267 269 270 272 273 274 275 275 276 277 278 279 280 282 283 285 287 289 290 290 291 291 291 292 293 295 296 298 299 299 300 300 300 300 300 301 301 301 301 301 301 302 303 304 305 306 307 307 308 309 310 310 311 312 312 313 313 314 314 314 315 315 315
242 244 244 245 246 247 248 249 250 251 252 253 254 255 256 257 258 260 261 262 263 264 266 267 269 270 271 272 273 274 275 275 276 277 279 280 281 283 285 287 288 289 289 289 290 290 291 293 294 296 297 298 298 298 298 298 298 298 298 299 299 299 300 300 301 301 302 303 304 305 306 306 307 308 309 309 310 311 311 312 312 312 313 313 313 313
242 244 245 245 246 247 248 249 250 250 251 253 254 255 256 257 258 259 261 262 263 264 266 267 268 269 271 272 273 273 274 275 276 277 279 280 282 283 285 286 287 288 288 288 289 289 291 292 294 295 296 296 296 296 296 296 296 296 296 297 297 297 298 299 299 300 301 302 303 303 304 305 306 307 307 308 309 309 310 310 311 311 311 311 311 311
243 244 245 246 246 247 248 249 249 250 250 252 254 255 256 256 258 259 261 262 263 264 265 267 268 269 270 271 272 273 274 275 276 277 279 280 282 283 285 285 286 286 286 287 287 289 290 291 293 294 294 294 294 294 294 294 294 294 295 295 296 296 297 297 298 299 299 300 301 302 303 304 305 305 306 307 308 308 309 309 309 309 309 309 309 309
243 244 245 246 246 247 248 248 249 249 250 252 253 255 256 257 258 259 261 262 263 264 265 266 267 268 269 270 272 273 274 275 276 277 279 280 281 283 284 284 284 284 285 285 286 287 289 290 291 292 292 292 292 292 292 292 293 293 293 294 294 295 296 296 297 298 298 299 300 301 302 303 304 304 305 306 306 307 307 308 308 308 308 308 308 308
243 244 244 245 246 246 247 247 248 249 250 251 253 254 256 257 258 260 261 262 263 264 264 266 267 268 269 270 271 272 274 275 276 277 279 280 281 282 283 283 283 283 284 284 285 286 288 289 290 290 290 290 290 291 291 291 291 292 292 293 293 294 295 295 296 297 297 298 299 300 301 302 303 303 304 305 305 306 306 306 306 306 306 306 306 306
242 243 243 244 245 245 246 246 247 249 250 251 253 254 256 257 258 259 261 262 263 263 264 265 266 267 269 270 271 272 274 275 276 277 279 280 280 281 281 281 281 282 283 284 284 285 287 288 288 289 289 289 289 289 289 290 290 291 291 292 293 293 294 294 295 296 296 297 298 299 300 301 302 302 303 304 304 304 305 305 305 305 305 305 305 305
241 241 242 243 243 244 245 246 247 248 250 251 253 255 256 257 257 259 261 262 263 263 264 265 266 267 268 269 271 272 274 275 276 278 279 280 280 279 279 280 280 281 282 283 284 285 286 287 287 288 288 288 288 288 288 289 289 290 290 291 292 292 293 294 294 295 296 296 297 298 299 300 301 301 302 302 303 303 303 303 304 304 304 304 304 304
240 240 240 241 242 243 244 245 247 249 250 252 254 255 256 256 257 259 260 261 262 263 264 265 266 267 269 269 270 272 273 275 276 277 279 279 279 278 278 278 279 280 281 282 283 284 285 286 287 287 287 287 287 287 288 288 288 289 290 290 291 292 292 293 293 294 295 296 296 297 298 299 300 300 301 301 302 302 302 302 302 303 303 303 303 303
239 240 240 241 242 243 244 246 247 249 251 252 254 254 255 256 257 258 260 261 262 263 264 265 266 267 269 269 270 271 272 274 276 277 278 278 277 277 277 277 278 279 280 281 282 283 284 285 286 286 286 286 287 287 287 287 288 288 289 290 290 291 291 292 293 293 294 295 296 296 297 298 299 299 300 300 300 301 301 301 302 302 302 302 303 303
239 239 240 241 242 243 245 246 248 250 251 252 253 254 255 256 257 258 259 260 262 263 264 265 266 268 269 270 270 271 272 274 275 276 277 276 276 275 275 276 276 278 279 281 282 283 284 285 285 286 286 286 286 286 286 286 287 288 288 289 290 290 291 291 292 293 294 294 295 296 297 297 298 298 299 299 299 300 300 300 301 301 301 302 302 302
239 239 240 241 242 244 245 247 248 250 251 252 253 254 255 256 257 258 259 260 261 263 264 265 267 268 269 270 270 270 272 273 275 275 276 275 274 274 274 275 276 277 279 280 281 283 284 285 285 285 286 286 286 285 285 286 286 287 288 288 289 290 290 291 292 292 293 294 294 295 296 296 297 297 298 298 299 299 299 300 300 300 301 301 301 302
238 239 240 241 242 244 246 247 249 250 251 251 252 253 255 256 257 258 259 260 261 263 264 265 267 268 269 270 270 271 272 273 274 274 274 274 273 273 273 274 275 277 278 280 281 283 284 285 285 285 285 285 285 284 285 285 285 286 287 288 289 289 290 291 291 292 292 293 294 294 295 296 296 297 297 298 298 298 299 299 300 300 300 301 301 301
238 239 240 241 243 244 246 248 249 250 250 251 252 253 254 256 257 258 259 260 261 263 264 265 267 267 268 270 270 271 272 272 273 273 273 273 273 273 273 274 276 277 279 280 282 283 284 285 285 285 285 285 284 284 284 284 285 286 287 288 288 289 290 290 291 291 292 293 293 294 294 295 296 296 296 297 297 298 298 299 299 300 300 300 300 301
238 239 240 242 243 245 247 248 248 249 250 250 252 253 254 255 257 258 259 260 261 262 264 265 266 267 268 269 270 271 272 272 272 272 273 273 272 272 273 275 276 278 279 281 282 284 285 285 285 285 285 284 283 283 283 284 285 286 287 288 288 289 290 290 291 291 291 292 293 293 294 294 295 296 296 297 297 298 298 299 299 299 300 300 300 300
239 240 241 243 245 246 247 248 248 248 249 250 251 253 254 255 256 257 258 260 261 262 263 264 265 266 267 269 270 270 271 271 270 271 271 272 272 273 274 275 277 279 280 282 283 285 286 286 285 285 285 284 283 282 283 283 285 286 287 288 288 289 289 290 290 291 291 292 292 293 294 294 295 295 296 296 297 297 298 298 299 299 299 300 300 300
240 241 243 245 246 247 247 248 248 248 249 250 251 253 254 255 256 257 258 259 260 261 262 263 265 266 267 268 269 269 269 269 269 270 270 271 272 273 275 277 279 280 282 283 285 286 286 286 286 285 285 284 283 282 282 283 284 286 287 288 288 289 289 290 290 290 291 292 292 293 294 294 295 295 296 296 297 297 298 298 299 299 300 300 300 300
241 243 245 246 247 247 247 247 247 247 248 250 251 252 253 255 256 257 258 259 260 261 262 264 265 266 267 267 267 267 267 267 268 269 270 271 273 274 276 278 280 281 283 284 285 286 286 286 286 285 285 284 282 282 282 283 285 286 287 288 288 289 289 289 290 291 291 292 293 293 294 294 295 296 296 297 297 298 298 299 299 299 300 300 300 300
242 244 245 246 246 247 247 247 247 247 248 250 251 252 253 254 256 257 258 259 260 261 262 264 265 265 265 265 265 265 266 266 267 268 269 271 273 275 276 279 281 282 283 285 286 286 286 286 286 285 285 284 282 282 282 283 285 286 287 288 288 288 289 289 290 291 292 292 293 294 294 295 295 296 296 297 297 298 298 299 299 299 300 300 300 300
243 243 244 245 245 246 246 246 247 247 249 250 251 252 253 254 256 257 258 259 260 261 262 263 264 264 264 263 263 264 265 266 267 268 270 272 274 275 277 279 281 282 283 285 285 286 286 286 285 285 285 284 282 282 282 284 286 287 288 288 288 288 289 290 290 291 292 293 294 294 295 295 296 296 297 297 297 298 298 299 299 300 300 300 300 300
243 243 244 244 245 245 245 246 247 248 249 250 251 252 253 255 257 258 259 259 259 260 262 262 262 262 262 262 262 263 264 266 267 268 270 272 274 275 277 280 282 283 284 284 285 286 286 285 285 285 284 283 283 283 284 285 286 287 288 288 288 289 289 290 291 292 293 294 294 295 295 295 296 296 297 297 298 298 299 299 300 300 300 301 301 301
243 243 244 244 245 245 246 247 248 249 249 250 251 252 254 255 257 258 259 259 259 260 260 260 260 260 260 261 262 263 264 266 267 268 271 273 274 276 278 280 282 283 284 285 285 285 285 285 285 284 284 283 284 284 285 287 287 288 288 288 289 289 290 291 292 293 293 294 294 295 295 296 296 297 297 298 298 299 299 300 300 301 301 301 301 301
243 243 244 245 245 246 247 248 248 249 250 250 252 253 254 256 257 258 258 259 258 258 258 259 259 259 259 260 262 263 265 266 267 268 271 273 275 276 278 280 281 282 284 285 285 285 285 285 285 284 284 284 285 286 287 288 288 289 289 289 290 290 291 291 292 293 294 294 295 295 296 296 297 298 298 299 299 299 300 300 301 301 301 301 301 301
243 243 244 244 245 246 247 248 249 249 250 250 252 253 255 256 257 258 258 258 257 257 257 257 257 258 258 260 262 264 266 266 267 269 271 274 275 277 279 280 281 282 283 284 285 286 286 286 285 285 285 286 286 287 288 288 289 289 290 290 290 291 291 292 293 293 294 295 296 296 297 297 298 298 299 299 299 300 300 301 301 301 302 302 302 302
242 243 244 244 245 246 247 248 248 249 250 251 252 253 255 256 256 256 256 256 255 255 255 256 256 257 259 261 263 265 266 267 268 269 272 274 275 277 279 280 281 282 283 283 284 285 285 286 286 286 286 286 287 288 288 288 289 289 289 290 290 291 291 292 293 294 295 296 297 297 298 299 299 299 300 300 300 300 300 301 301 302 302 302 302 302
242 243 244 244 245 246 247 248 249 249 250 251 252 253 254 255 255 254 254 254 254 254 254 255 256 258 259 261 263 265 267 268 269 270 272 274 276 277 279 280 280 281 282 283 283 283 284 285 286 286 286 287 287 287 288 288 288 289 289 290 290 291 292 293 294 295 296 297 298 298 299 299 300 300 300 300 301 301 301 301 301 302 302 302 302 302
242 243 244 245 246 247 247 248 249 250 251 252 252 253 253 253 253 252 252 252 252 253 254 255 257 258 260 262 264 266 267 268 269 270 272 274 276 277 279 279 280 281 282 282 283 283 283 284 285 286 287 287 287 287 287 288 288 289 289 290 291 292 293 294 295 296 296 297 298 299 299 300 300 301 301 301 301 301 301 301 302 302 302 302 302 302
242 243 244 245 246 247 247 248 249 250 251 251 252 252 251 251 251 251 251 251 252 253 254 255 257 259 260 262 264 266 267 268 269 271 272 274 276 277 279 279 280 281 282 282 283 283 284 284 285 286 287 287 288 288 288 288 289 289 290 291 292 292 293 294 295 296 297 298 298 299 300 300 301 301 301 301 302 302 302 302 302 302 301 301 301 301
242 243 244 245 246 247 248 248 249 249 250 250 250 250 250 249 249 250 250 251 252 253 255 256 258 259 260 262 264 266 268 269 270 271 272 274 275 277 278 279 280 280 281 282 283 283 284 285 285 286 286 287 288 288 288 289 289 290 291 292 292 293 294 295 296 296 297 298 298 299 300 301 301 301 302 302 302 302 302 302 302 302 301 301 301 301
242 243 244 245 246 247 247 248 248 248 249 249 248 248 248 248 248 249 250 251 252 254 255 257 258 259 261 262 264 265 267 269 270 271 272 274 275 276 278 279 280 280 281 281 282 283 284 285 285 286 286 287 287 288 289 290 290 291 292 292 293 294 295 295 296 297 297 298 299 300 300 301 301 302 302 302 302 302 302 302 302 302 301 301 301 301
242 243 244 245 245 246 247 247 247 247 247 247 247 247 246 247 247 248 249 251 252 253 255 257 258 260 261 263 264 265 267 269 270 271 272 274 275 276 277 278 279 280 280 281 282 283 284 284 285 286 287 287 287 288 289 290 291 291 292 293 294 295 295 296 297 297 298 299 299 300 300 301 301 302 302 302 302 302 302 302 302 302 301 301 301 301
242 243 244 244 245 245 246 246 246 246 246 245 245 245 245 246 247 248 249 250 252 253 255 257 258 260 262 263 265 266 268 269 270 271 273 274 275 276 276 278 279 279 280 280 281 282 283 284 284 286 287 287 288 289 289 290 291 292 293 294 295 295 296 297 297 298 298 299 299 300 300 301 301 302 302 302 302 302 302 302 302 302 302 302 301 301
242 242 243 243 244 244 244 245 245 245 244 244 244 244 245 245 246 248 249 250 252 253 255 257 259 261 262 264 265 267 268 269 270 272 273 273 274 275 276 277 278 279 279 280 280 281 282 283 284 285 286 287 288 289 290 291 291 293 294 295 296 296 296 297 298 298 298 299 300 300 301 301 302 302 302 302 302 302 302 302 302 302 302 302 302 302
241 242 242 243 243 243 243 244 244 243 243 243 243 244 244 245 246 248 249 251 252 254 256 257 259 261 263 265 266 267 268 270 271 272 273 273 274 274 275 276 277 278 279 280 280 281 281 282 283 284 286 287 288 289 290 291 292 293 294 295 296 296 297 297 298 298 299 299 300 301 301 301 302 302 302 302 302 301 301 302 302 302 302 302 302 302
240 240 241 241 242 242 242 242 242 242 242 242 243 244 245 245 246 248 250 251 253 254 256 258 260 262 264 265 267 268 269 270 271 272 272 273 273 274 275 275 276 277 278 280 280 281 281 282 283 285 286 287 288 290 290 291 292 293 294 295 296 297 297 298 298 299 299 300 300 301 301 301 301 301 302 301 301 301 301 301 301 301 302 302 302 302
238 239 239 240 240 240 240 240 241 241 241 242 243 244 245 246 247 248 250 251 253 255 256 258 260 262 264 266 267 268 269 270 271 272 272 273 273 274 275 275 276 277 278 279 280 281 282 283 284 285 286 288 289 290 291 292 293 294 294 295 296 297 298 298 299 299 300 300 301 301 301 301 301 301 301 301 301 302 302 302 302 302 302 302 302 302
237 237 238 238 238 239 239 239 240 240 241 242 243 244 245 246 247 248 250 252 254 255 257 259 261 263 265 266 267 268 269 271 271 272 272 273 273 274 275 276 276 277 278 279 280 282 283 284 285 286 287 288 289 290 291 292 293 294 295 296 296 297 297 298 299 300 300 300 301 301 301 301 301 301 302 302 302 302 302 302 302 302 302 302 302 302
235 236 236 237 237 237 237 238 239 240 241 242 243 244 245 246 247 249 250 252 254 256 257 259 261 263 264 265 267 268 269 270 272 272 273 273 273 274 275 276 276 277 278 279 280 282 284 285 286 287 288 289 289 290 291 293 294 294 295 296 296 297 297 298 299 300 300 300 301 301 301 301 302 302 302 302 302 302 303 303 303 303 303 303 302 302
234 234 235 235 235 236 237 238 239 239 240 241 242 244 245 246 247 249 250 252 254 256 258 259 261 263 264 266 267 268 269 270 271 272 273 273 274 274 275 276 277 277 278 279 281 282 283 285 286 288 289 290 290 291 291 293 294 295 295 296 297 297 298 299 299 300 300 301 301 301 301 302 302 302 302 302 303 303 303 303 303 303 303 303 303 302
232 233 233 234 235 236 237 238 239 240 240 241 242 244 245 246 248 249 251 252 254 256 258 260 261 263 264 266 267 268 269 270 271 272 273 274 274 275 276 276 277 278 279 280 281 282 283 284 286 287 289 290 291 291 292 293 294 295 296 297 297 298 299 299 300 300 301 301 301 302 302 302 302 302 303 303 303 303 304 304 304 304 303 303 303 303
231 231 232 233 234 235 237 238 239 240 240 241 242 244 245 246 248 249 251 253 254 256 258 260 261 263 264 266 267 268 269 270 271 272 273 274 275 275 276 277 278 279 280 281 282 283 284 285 286 287 288 289 291 292 293 294 294 295 296 297 298 299 299 300 300 301 301 301 301 302 302 303 303 303 303 304 304 304 304 304 304 304 304 303 303 303
230 231 232 233 234 235 237 238 238 239 240 241 242 244 246 247 248 249 251 253 255 257 259 260 262 263 265 266 267 268 269 270 271 272 273 274 274 276 277 278 279 280 281 282 283 284 285 286 286 286 287 289 290 292 293 294 295 296 297 298 298 299 299 300 301 301 301 302 302 302 303 303 303 303 304 304 304 304 304 305 305 304 304 304 303 303
229 230 231 233 234 235 236 237 238 239 240 241 243 244 246 247 249 250 252 254 256 258 259 261 262 264 265 266 267 268 268 269 271 272 273 274 275 276 277 278 280 281 283 284 285 286 287 288 288 288 288 289 290 292 293 295 296 297 298 298 299 299 300 301 301 302 302 302 302 303 303 303 303 304 304 304 304 305 305 305 305 305 304 304 304 303
229 230 231 233 234 235 236 237 238 239 240 241 243 245 246 248 249 251 253 255 257 258 260 261 262 263 264 265 267 267 268 269 271 272 273 274 275 276 278 279 280 282 283 285 286 287 288 290 291 291 290 290 290 292 294 295 297 298 298 299 299 300 301 301 302 302 302 303 303 303 304 304 304 304 304 305 305 305 305 305 305 305 305 305 304 304